Location: Bear Valley Community Church - Hurst
(32.8460°N, 97.1828°W)
Time: 14:43:32
(UTC+00:00)

DELTA 2 R/B (1) - Visible Passes

Search period start: 25 June 2022 00:00
Search period end: 05 July 2022 00:00
Orbit: 790 x 803 km, 39.6° (Epoch: 24 June)

Date Brightness Start Highest point End Pass type
(mag) Time Alt. Az. Time Alt. Az. Time Alt. Az.
25 Jun 4.7 02:54:30 10° WNW 02:59:47 41° N 03:05:05 10° ENE visible
25 Jun 3.9 04:41:16 10° WNW 04:46:49 61° NNE 04:47:17 59° NE visible
25 Jun 6.1 06:27:52 10° WNW 06:28:00 11° WNW 06:28:00 11° WNW visible
26 Jun 4.8 02:23:26 10° WNW 02:28:43 41° N 02:34:01 10° ENE visible
26 Jun 4.0 04:10:15 10° WNW 04:15:46 58° NNE 04:17:28 41° ENE visible
26 Jun 5.7 05:56:48 10° WNW 05:58:11 18° WNW 05:58:11 18° WNW visible
27 Jun 4.1 03:39:14 10° WNW 03:44:44 55° NNE 03:47:40 27° E visible
27 Jun 5.1 05:25:45 10° WNW 05:28:24 28° W 05:28:24 28° W visible
28 Jun 4.2 03:08:13 10° WNW 03:13:41 53° NNE 03:17:55 17° E visible
28 Jun 4.3 04:54:43 10° WNW 04:58:39 43° W 04:58:39 43° W visible
29 Jun 4.3 02:37:11 10° WNW 02:42:38 51° NNE 02:48:05 10° E visible
29 Jun 3.6 04:23:41 10° WNW 04:28:55 64° SW 04:28:55 64° SW visible
30 Jun 4.4 02:06:10 10° WNW 02:11:34 49° NNE 02:17:00 10° E visible
30 Jun 3.5 03:52:39 10° WNW 03:58:13 71° SSW 03:59:14 57° SSE visible
01 Jul 3.5 03:21:37 10° WNW 03:27:13 77° SSW 03:29:35 36° SE visible
01 Jul 5.8 05:09:13 10° W 05:10:20 14° WSW 05:10:20 14° WSW visible
02 Jul 3.6 02:50:36 10° WNW 02:56:12 82° SSW 02:59:59 21° ESE visible
02 Jul 5.4 04:38:00 10° W 04:40:44 20° WSW 04:40:44 20° WSW visible
03 Jul 3.6 02:19:34 10° WNW 02:25:11 88° SSW 02:30:26 12° ESE visible
03 Jul 5.0 04:06:49 10° W 04:11:11 24° SW 04:11:11 24° SW visible
04 Jul 4.9 03:35:39 10° W 03:40:14 26° SW 03:41:41 24° SSW visible
